Location: Knowlton
(51.2333°N, 1.2667°E)
Time: 09:11:48
(UTC+00:00)

SL-08 R/B - Pass Details

Date: 18 April 2021
Orbit: 946 x 993 km, 83.0° (Epoch: 05 May)

Event Time Altitude Azimuth Distance (km) Brightness Sun altitude
Rises 22:21:37 0° 349° (N) 3,642 8.8 -24.5°
Reaches altitude 10° 22:24:07 10° 349° (NNW) 2,698 7.8 -24.6°
Maximum altitude 22:30:17 81° 263° (W) 981 4.4 -25.0°
Enters shadow 22:31:43 56° 186° (S) 1,143 4.5 -25.1°
